Location: *
(34.6903°N, 135.5184°E)
Time: 13:29:22
(UTC+00:00)

Cosmos 1655 Rocket - Pass Details

Date: 22 September 2019
Orbit: 971 x 1005 km, 83.0° (Epoch: 21 October)

Event Time Altitude Azimuth Distance (km) Brightness Sun altitude
Exits shadow 18:42:42 15° 178° (S) 2,344 5.8 -25.7°
Maximum altitude 18:47:54 77° 94° (E) 1,003 4.1 -24.7°
Drops below altitude 10° 18:54:10 10° 9° (N) 2,741 6.7 -23.5°
Sets 18:56:42 0° 8° (N) 3,697 7.4 -23.0°
